Temperature
18 18 18 18 16 14 16 17 19 20 20 22 22 21 19 19 20 19 19 19 18 17 16 15 15 15 15 15 14 14 13 13 12 12 12 12 12 12 12 12 12 12 12 12 12 12 12 12 12
18 18 19 18 15 15 16 17 19 20 21 22 22 21 19 19 20 20 19 18 18 17 17 16 15 15 15 15 14 14 13 13 12 12 12 12 12 11 11 11 11 11 12 12 12 12 12 12 12
18 18 18 15 15 16 18 18 18 20 22 22 22 21 21 20 20 20 20 18 17 17 17 16 15 15 15 15 14 14 13 13 12 12 12 12 11 11 11 11 11 12 12 12 12 12 12 12 12
18 18 18 15 16 17 18 18 18 20 22 22 22 20 20 21 21 21 20 18 18 17 16 16 15 15 15 14 14 14 13 13 12 12 12 11 11 11 11 12 12 12 12 12 12 12 12 12 12
18 18 16 15 17 17 18 19 20 19 20 22 21 19 20 20 20 20 20 19 18 17 16 16 15 15 14 14 14 14 14 13 12 12 12 11 11 11 12 12 12 12 12 12 12 12 12 12 12
18 15 15 15 17 18 18 20 20 19 20 21 21 19 20 20 20 20 20 19 18 18 17 16 15 15 14 14 14 14 14 13 13 12 12 12 12 12 12 12 12 12 12 12 12 12 12 12 12
17 14 15 16 17 18 19 21 20 19 19 21 22 18 18 19 20 19 19 18 18 17 16 16 15 15 14 14 14 14 14 13 13 12 12 12 12 12 12 12 12 12 12 12 12 12 12 12 12
18 14 16 16 17 18 20 21 22 21 21 22 22 19 18 19 19 18 18 17 17 17 16 16 15 15 15 14 14 14 14 13 13 12 12 12 12 12 12 12 12 12 12 12 12 12 12 12 11
18 15 15 16 17 18 20 20 21 22 22 22 22 22 22 20 18 17 17 16 16 16 16 16 15 15 15 14 14 14 13 13 13 12 12 12 12 12 12 12 12 12 12 12 12 12 11 11 11
17 14 16 17 18 18 19 20 21 21 20 20 21 21 21 20 19 18 17 17 17 16 16 16 16 15 15 14 14 14 13 13 13 12 12 12 12 12 12 12 12 12 12 11 11 11 11 11 11
16 15 16 18 19 19 19 20 20 20 19 20 21 21 20 20 19 18 18 19 19 18 17 16 16 15 15 14 14 14 13 13 13 12 12 12 12 12 11 11 11 11 11 11 11 11 11 11 11
16 16 17 18 19 19 19 19 19 20 20 22 22 22 21 20 19 19 19 19 18 18 17 17 16 16 15 15 14 14 13 13 13 13 12 12 12 12 11 11 11 11 11 11 11 11 11 11 10
15 16 18 18 19 19 19 19 19 20 21 21 21 21 20 20 20 20 20 19 18 18 17 17 16 16 15 15 14 14 14 13 13 13 12 12 12 12 11 11 11 11 11 11 11 11 10 10 10
16 16 17 18 18 18 18 18 18 19 21 21 20 20 20 20 20 20 19 18 18 18 18 17 17 16 16 15 15 14 14 14 13 13 13 12 12 12 11 11 11 11 11 11 11 10 10 10 10
16 15 15 16 17 17 17 16 16 20 20 20 20 20 20 20 20 20 20 19 19 19 18 17 17 16 16 16 15 15 14 14 13 13 13 12 12 12 11 11 11 11 11 11 10 10 10 10 10
15 14 14 15 16 17 16 15 16 20 19 19 20 20 20 20 20 20 20 20 20 19 18 18 17 16 16 16 15 15 14 14 14 13 13 12 12 12 11 11 11 11 11 10 10 10 10 10 10
14 13 14 15 16 16 15 15 16 19 19 19 20 20 20 20 20 20 20 20 20 19 19 18 17 17 16 16 15 15 14 14 14 13 13 13 12 12 12 11 11 11 11 10 10 10 10 10 10
12 13 14 14 15 15 14 14 16 18 18 18 19 20 20 20 20 21 21 20 20 19 19 18 18 17 17 16 15 14 14 14 13 13 13 13 12 12 12 11 11 11 10 10 10 10 10 10 10
13 13 13 14 15 15 14 15 16 17 17 17 18 19 19 20 21 21 21 21 20 19 19 18 18 17 16 15 15 14 14 14 14 13 13 13 13 12 12 12 11 11 11 10 10 10 10 10 9
13 13 13 14 15 15 14 14 15 15 16 17 18 19 19 20 20 21 21 21 20 20 19 19 18 18 17 16 16 16 15 15 14 14 13 13 13 12 12 12 11 11 11 10 10 10 10 9 9
13 12 13 13 14 14 14 14 14 15 16 17 18 19 20 20 20 21 21 21 20 20 20 19 19 18 17 17 16 15 14 13 13 13 13 13 13 12 12 12 12 11 11 11 10 10 10 10 9
12 13 13 13 13 12 13 12 13 14 15 16 17 18 19 20 21 21 21 21 20 20 20 19 19 18 18 17 16 15 15 14 15 15 14 13 13 13 12 12 12 11 11 11 11 10 10 10 9
13 13 13 13 12 12 12 12 12 13 14 15 16 18 19 20 20 21 21 21 21 21 20 20 19 18 18 17 16 16 16 16 15 14 14 13 13 13 12 12 12 11 11 11 10 10 10 10 9
13 13 12 12 11 11 12 11 12 13 14 15 16 18 19 20 20 20 21 21 21 20 20 19 19 18 18 17 17 16 16 16 15 14 14 14 13 13 13 12 12 11 11 11 10 10 10 10 9
12 11 11 11 10 11 12 12 12 13 14 15 16 18 19 20 20 20 20 20 20 20 20 19 19 18 18 17 17 17 16 16 15 15 15 14 14 13 13 12 12 12 11 11 10 10 10 10 9
11 11 11 11 10 10 11 12 13 14 14 16 17 18 19 19 19 19 20 20 20 20 19 19 19 18 18 18 17 17 16 16 15 15 15 14 14 14 13 13 12 12 11 11 10 10 10 10 9
11 11 11 11 10 10 10 11 12 14 14 15 15 16 17 18 19 19 19 20 19 19 19 19 19 18 18 18 17 17 16 16 16 15 15 14 14 14 13 13 12 12 11 11 10 10 10 10 9
11 11 10 10 10 10 10 11 12 14 14 15 14 15 17 18 18 19 19 19 19 19 19 19 18 18 18 18 17 17 16 16 16 15 14 14 14 13 13 12 12 11 11 11 10 10 10 9 9
10 11 10 10 9 9 9 11 13 13 14 14 14 16 17 17 18 18 18 18 18 18 18 18 18 18 17 17 17 17 16 16 15 15 14 14 14 13 13 12 12 11 11 11 10 10 10 9 9
10 10 10 9 9 9 9 11 13 13 13 14 14 16 17 17 17 18 18 18 18 18 18 18 18 18 18 17 17 17 16 16 15 15 14 14 13 13 13 12 12 11 11 11 10 10 9 9 9
Wind_Speed
1 3 3 4 5 3 4 5 4 2 1 3 4 8 8 5 4 4 3 12 14 15 19 21 21 20 19 18 17 17 16 16 15 14 13 13 13 13 13 12 12 12 13 13 13 13 13 13 13
1 2 4 5 4 1 6 5 5 6 5 3 4 6 6 2 3 8 7 12 18 18 19 20 22 21 20 19 18 17 16 16 15 14 14 13 13 13 12 12 12 12 12 12 12 12 12 12 12
0 2 4 4 3 6 6 5 7 5 6 4 3 4 7 7 7 10 10 17 16 16 18 21 22 21 20 19 18 18 17 16 15 14 14 13 13 13 12 12 12 11 11 11 11 11 11 10 10
3 4 4 2 6 7 7 6 4 2 1 2 5 5 3 4 9 9 16 18 17 13 17 21 23 22 21 20 19 18 17 16 15 14 13 13 13 12 12 12 11 11 10 10 10 10 9 9 9
3 4 1 3 8 6 6 7 5 4 4 2 5 6 2 3 5 15 19 19 18 13 16 21 23 22 21 20 19 18 17 16 15 14 14 13 13 12 12 11 11 10 10 10 9 9 8 8 8
3 3 2 6 9 6 6 7 5 4 4 3 6 7 2 1 12 16 17 17 17 16 16 20 23 22 22 21 20 19 18 17 16 15 14 13 13 12 12 11 10 9 9 9 8 8 7 7 7
4 3 5 6 6 7 7 5 6 6 6 7 8 7 2 4 10 14 14 14 14 15 15 15 19 21 21 21 20 19 18 17 16 15 14 13 13 12 11 11 10 9 9 8 7 7 6 5 5
5 3 4 5 6 7 5 4 5 7 7 5 8 10 8 9 9 10 12 12 13 12 12 12 15 17 18 19 20 19 18 18 17 16 15 14 13 12 11 11 10 9 8 7 6 5 5 3 3
4 2 6 6 6 6 4 3 3 3 4 2 4 8 8 14 13 12 10 9 12 13 11 11 12 14 16 17 19 19 18 18 17 16 16 14 12 12 11 11 10 9 8 7 6 5 3 2 1
4 7 10 6 5 4 5 4 4 1 0 1 1 2 7 16 17 17 16 17 17 17 15 12 13 13 15 15 16 16 16 16 16 15 15 14 12 12 11 12 11 10 8 7 6 4 3 1 1
6 8 7 7 7 5 6 6 4 3 6 7 7 7 11 14 16 17 18 18 19 19 17 16 14 14 14 11 13 12 13 14 15 16 16 14 12 11 11 10 10 9 8 6 5 3 2 2 2
5 8 6 7 6 5 6 6 6 7 10 8 9 13 15 16 19 19 19 17 15 16 18 17 16 14 14 13 12 12 11 11 12 15 17 14 9 8 9 9 9 9 8 6 5 4 4 4 4
9 10 9 8 9 8 8 9 9 11 12 7 6 11 16 18 18 17 17 15 14 17 18 18 17 16 15 12 11 12 11 12 14 15 17 16 10 7 8 8 10 10 9 7 6 5 4 3 4
7 7 10 10 10 8 9 10 8 13 9 6 8 13 16 18 18 14 13 13 16 18 18 18 19 18 15 14 11 11 13 14 15 15 17 18 15 11 9 8 8 9 11 10 8 6 4 3 3
6 7 9 9 9 7 5 12 13 14 8 9 10 12 14 16 15 16 17 18 19 18 18 19 20 18 18 16 14 12 14 15 13 15 18 19 18 15 11 7 7 10 12 11 7 5 4 3 2
3 5 9 9 7 7 6 16 14 10 9 12 12 11 13 15 15 17 17 17 17 17 18 20 18 19 19 16 14 12 13 14 13 15 17 19 20 18 13 8 8 12 11 8 5 4 3 3 3
3 6 9 9 7 7 9 13 12 8 9 12 12 12 13 13 14 16 16 17 17 19 19 19 18 20 19 17 13 11 12 12 13 15 15 18 20 20 14 9 9 12 8 6 5 4 4 3 3
7 7 7 9 6 8 11 16 15 10 10 13 13 12 12 14 16 15 16 17 17 17 18 20 19 19 18 14 10 9 9 10 11 12 14 17 18 19 15 10 10 10 6 6 5 5 4 3 4
7 7 9 9 7 8 14 19 19 14 11 13 13 13 14 16 15 12 14 14 14 15 17 19 19 18 15 13 12 12 12 10 10 10 15 17 17 18 14 8 8 8 8 8 7 5 5 3 3
9 10 10 8 6 7 11 17 15 13 13 14 15 15 16 14 12 11 11 12 15 17 18 19 20 19 18 16 14 11 10 8 9 8 11 16 17 17 15 11 10 9 8 8 8 6 4 3 4
12 12 11 9 7 6 7 11 12 10 11 13 13 14 13 16 15 13 12 13 14 16 18 18 20 19 19 16 10 7 5 4 6 9 10 12 16 16 14 13 10 10 10 9 10 8 8 6 5
14 10 11 9 6 6 4 8 10 9 11 13 14 14 14 14 13 12 13 13 14 16 16 17 18 19 18 16 14 14 12 12 12 10 10 10 13 14 15 14 12 11 10 10 10 9 7 7 5
8 6 8 9 8 8 7 7 9 6 11 13 13 14 14 13 13 13 14 14 14 14 14 15 16 17 17 17 18 17 15 12 8 7 10 11 11 12 13 14 12 11 10 11 10 9 9 7 7
5 3 4 3 3 10 12 9 9 7 11 11 11 12 13 12 11 11 10 10 10 10 12 13 15 16 17 18 18 19 17 14 11 11 12 11 9 10 12 12 12 12 10 11 11 10 10 9 8
5 4 3 4 5 10 7 8 10 11 10 11 12 12 12 10 9 9 9 9 10 11 12 13 15 16 17 18 18 19 19 17 17 15 14 12 9 10 13 12 12 11 10 10 10 10 10 10 9
10 10 8 7 6 5 4 10 9 10 10 10 11 9 8 8 8 9 10 10 10 11 13 14 16 16 17 18 18 16 16 14 13 14 12 13 12 12 11 12 12 11 11 10 10 9 9 8 9
8 10 7 3 3 4 7 7 9 7 7 7 7 7 8 9 9 9 9 9 9 10 13 15 16 15 16 17 16 15 15 14 13 13 12 10 9 9 10 12 12 11 11 11 10 9 10 8 9
7 7 5 6 6 7 7 7 6 6 8 8 8 8 10 8 8 8 8 9 9 9 9 10 13 15 14 15 15 14 15 15 13 12 13 12 11 10 10 11 11 11 11 11 10 8 8 9 9
6 7 6 6 5 6 6 8 7 10 9 9 9 8 8 8 8 8 8 8 7 7 7 9 10 11 12 14 14 14 14 13 12 12 13 12 11 11 11 12 12 11 11 10 10 10 9 10 9
8 9 9 8 8 6 6 9 6 6 6 6 7 7 6 7 7 7 7 6 6 7 7 9 9 10 12 12 12 13 12 12 12 13 12 12 12 11 12 11 11 11 11 11 11 11 10 10 10
Wind_Direction
310 95 91 64 56 50 252 250 212 197 179 208 138 114 124 136 159 176 142 145 144 153 161 159 157 153 150 146 143 141 137 132 128 125 124 120 116 112 108 106 103 98 95 92 90 88 87 86 84
83 108 69 67 98 208 260 245 206 216 195 170 117 111 108 128 145 129 133 154 150 154 158 158 158 155 151 148 146 145 141 137 133 131 129 126 121 116 113 110 108 104 100 96 92 91 91 89 83
134 118 97 93 158 201 227 224 201 211 212 174 106 98 143 162 162 164 166 152 149 153 156 160 159 157 155 152 150 148 145 143 140 137 134 131 127 122 118 115 113 110 106 102 98 96 93 89 84
79 61 66 109 234 229 213 224 203 164 242 153 127 101 143 182 174 169 148 149 149 153 156 162 162 160 158 156 154 152 151 149 146 144 140 136 131 127 124 121 118 115 112 108 104 99 95 90 84
70 89 94 255 248 249 230 226 208 192 197 181 130 136 169 326 149 141 147 152 153 154 158 165 164 163 161 160 158 157 155 152 151 150 147 143 138 134 130 128 125 122 117 114 109 103 99 93 87
65 87 157 239 251 258 250 229 198 200 220 207 136 141 195 113 141 149 153 155 156 157 161 167 168 166 165 164 163 161 160 157 157 156 153 149 145 142 139 138 134 131 125 120 115 109 102 96 89
137 141 213 230 253 262 250 219 183 192 211 211 152 139 192 185 168 153 151 151 154 158 161 168 169 168 168 168 167 166 165 163 162 162 159 155 152 150 147 146 143 138 132 128 123 118 112 101 88
151 144 239 238 236 251 249 218 200 180 213 203 143 152 194 200 174 144 139 146 153 160 165 167 168 167 168 169 170 169 168 167 167 166 163 161 160 156 155 154 152 148 144 142 137 130 126 110 84
124 166 235 229 222 248 269 261 261 202 158 153 167 184 201 156 148 139 138 148 161 168 172 170 167 168 168 169 173 172 172 171 169 168 167 165 162 160 162 163 163 161 160 159 156 153 151 143 32
149 210 231 230 222 248 280 272 263 304 239 207 22 30 131 147 158 162 166 169 174 178 180 177 174 171 169 173 174 173 174 174 172 172 170 167 167 170 172 175 177 175 176 178 179 182 186 218 295
183 212 234 248 251 255 270 278 272 206 241 220 199 180 155 165 171 177 180 180 182 180 180 181 179 176 174 174 172 175 175 175 176 177 177 175 176 180 182 182 187 187 188 192 200 209 218 230 243
225 239 232 248 252 245 252 266 271 230 235 229 204 175 170 178 183 187 188 188 181 179 185 183 181 178 179 176 177 178 178 181 184 187 185 180 179 183 186 188 192 192 193 196 207 214 226 237 238
239 252 255 251 251 248 251 251 255 254 251 247 207 175 183 190 195 197 193 187 181 183 186 184 183 182 181 178 181 183 185 188 191 191 191 186 183 185 188 195 196 198 198 201 208 214 220 222 223
237 246 259 259 255 252 248 261 252 255 252 243 204 197 199 200 201 200 195 191 190 190 188 184 185 184 182 183 185 186 190 192 193 196 195 192 189 187 188 191 193 199 202 205 204 204 201 207 202
241 264 279 259 242 243 251 272 246 248 251 245 233 214 212 212 208 204 201 198 196 193 189 186 187 184 184 186 187 188 190 191 195 199 198 194 191 189 188 187 191 200 202 200 198 199 194 198 200
227 236 255 258 230 224 206 258 258 252 241 245 244 234 222 222 216 214 209 204 198 193 190 189 188 187 188 188 188 188 190 191 196 198 197 195 193 190 186 187 194 196 192 187 181 187 189 205 209
223 225 239 263 231 212 210 252 264 250 232 243 244 239 232 229 227 222 214 208 201 196 192 190 189 188 190 189 188 187 188 192 195 196 196 196 194 191 187 191 195 190 185 185 189 190 186 202 217
219 225 235 240 248 218 234 251 264 262 239 242 245 243 236 232 231 223 216 210 203 198 194 192 190 189 187 186 183 183 188 193 194 196 198 195 195 193 190 192 192 186 183 192 192 194 195 199 205
214 228 244 252 247 230 241 252 259 259 253 248 246 244 239 237 237 227 216 207 199 195 193 192 190 188 183 185 187 189 196 196 196 199 198 197 196 194 192 192 190 187 194 197 192 186 197 208 176
233 245 254 274 267 242 253 259 260 252 245 244 242 239 238 240 241 232 218 204 197 194 193 192 192 188 187 191 192 192 189 192 196 196 198 199 197 195 196 193 194 193 196 198 196 187 186 200 176
236 235 241 258 304 292 282 279 263 258 246 248 244 239 236 232 231 228 217 209 200 197 194 194 193 191 191 187 179 166 160 167 186 199 202 202 199 198 198 197 195 195 195 203 203 195 190 205 208
241 235 241 252 267 271 244 273 267 257 262 253 247 241 236 234 229 223 215 210 204 202 196 194 192 191 190 183 182 180 189 199 203 199 200 200 200 200 200 198 197 198 200 203 205 200 198 193 211
231 232 240 245 242 259 246 253 272 258 255 255 248 243 239 234 225 220 215 211 207 198 192 192 189 191 188 187 189 190 199 204 196 189 194 201 204 203 202 200 199 202 203 205 204 200 201 201 205
223 235 266 253 227 250 233 226 269 232 232 249 251 245 240 234 228 224 219 208 204 193 189 187 187 191 189 190 192 194 198 195 188 194 199 204 206 207 206 202 203 205 205 205 206 204 203 207 208
194 170 229 235 227 242 216 218 250 240 236 234 243 245 239 232 224 219 211 206 202 193 190 188 188 192 191 192 196 199 200 197 199 200 203 203 205 209 209 204 205 206 206 204 201 204 208 207 208
207 191 200 214 227 261 224 228 248 248 250 250 249 250 243 231 222 218 213 203 200 199 194 191 193 194 192 194 199 200 199 201 206 205 204 206 210 212 205 203 205 205 202 202 200 207 211 208 212
193 211 207 214 258 257 247 265 291 271 266 261 256 249 243 234 226 221 216 207 202 201 200 195 195 196 196 196 197 199 200 201 205 203 203 206 208 204 198 200 203 203 201 201 199 209 211 209 214
191 176 166 197 219 240 261 251 240 251 254 259 257 246 246 243 237 232 221 214 210 207 204 198 198 199 198 197 198 201 202 204 203 199 203 205 204 198 193 197 201 201 202 201 200 207 209 208 216
193 193 198 202 209 211 248 257 224 221 235 243 252 253 251 248 242 236 230 221 214 208 201 200 200 201 200 200 200 200 201 201 199 202 205 204 200 197 197 198 199 201 201 199 201 207 203 209 215
211 207 194 210 229 220 235 262 254 237 252 246 255 265 270 263 252 245 235 222 217 214 211 208 205 205 206 202 199 201 200 196 199 204 204 199 198 197 197 195 197 200 201 199 202 206 203 207 212
Height
1514 1514 1515 1516 1519 1527 1525 1515 1507 1504 1502 1500 1499 1500 1502 1506 1509 1514 1511 1510 1513 1515 1517 1520 1523 1524 1526 1527 1528 1529 1530 1531 1532 1532 1533 1533 1533 1534 1534 1534 1534 1535 1535 1535 1535 1534 1535 1535 1535
1513 1514 1516 1516 1524 1532 1524 1510 1506 1500 1499 1499 1499 1500 1502 1504 1505 1506 1507 1510 1512 1515 1517 1519 1522 1524 1525 1527 1528 1529 1530 1531 1531 1532 1533 1533 1533 1534 1534 1534 1534 1535 1535 1535 1535 1535 1535 1535 1535
1513 1513 1515 1517 1523 1525 1516 1505 1501 1498 1497 1498 1499 1499 1501 1502 1503 1505 1506 1509 1512 1514 1516 1519 1521 1523 1525 1526 1528 1529 1530 1531 1531 1532 1533 1533 1533 1534 1534 1534 1535 1535 1535 1535 1535 1536 1536 1536 1536
1512 1514 1514 1519 1518 1511 1505 1500 1498 1498 1497 1496 1497 1500 1501 1502 1503 1504 1505 1508 1511 1513 1516 1518 1521 1523 1524 1526 1527 1528 1529 1530 1531 1532 1533 1533 1533 1534 1534 1534 1535 1535 1535 1536 1536 1536 1536 1536 1536
1511 1511 1516 1519 1512 1504 1499 1497 1497 1497 1496 1496 1496 1498 1500 1501 1502 1503 1505 1507 1509 1512 1515 1517 1520 1522 1524 1525 1527 1528 1529 1530 1531 1532 1532 1533 1533 1534 1534 1535 1535 1535 1536 1536 1536 1536 1536 1537 1537
1510 1511 1520 1519 1509 1501 1497 1496 1496 1495 1495 1495 1495 1497 1498 1500 1501 1502 1504 1506 1509 1511 1514 1516 1519 1521 1523 1524 1526 1527 1528 1529 1530 1531 1532 1533 1533 1534 1534 1535 1535 1536 1536 1536 1536 1537 1537 1537 1537
1509 1512 1515 1511 1507 1501 1495 1493 1493 1493 1493 1493 1493 1496 1497 1499 1501 1502 1504 1506 1509 1511 1513 1515 1518 1520 1522 1523 1525 1526 1527 1528 1530 1531 1532 1532 1533 1533 1534 1535 1535 1536 1536 1536 1537 1537 1537 1537 1537
1505 1509 1509 1508 1505 1499 1492 1492 1491 1490 1491 1491 1491 1493 1495 1496 1499 1502 1504 1506 1508 1510 1512 1514 1516 1518 1520 1522 1524 1525 1527 1528 1529 1530 1531 1532 1532 1533 1534 1535 1535 1536 1536 1536 1537 1537 1537 1538 1538
1503 1509 1508 1503 1500 1495 1491 1490 1489 1489 1488 1489 1489 1490 1490 1493 1497 1500 1502 1504 1506 1508 1510 1512 1514 1517 1519 1521 1522 1524 1525 1527 1528 1529 1530 1531 1532 1533 1534 1534 1535 1536 1536 1536 1537 1537 1537 1538 1538
1500 1505 1499 1494 1493 1492 1490 1489 1489 1488 1487 1487 1487 1488 1489 1491 1493 1495 1497 1499 1502 1504 1507 1510 1512 1514 1517 1519 1521 1522 1524 1525 1526 1528 1529 1530 1531 1532 1533 1534 1534 1535 1536 1536 1537 1537 1537 1537 1537
1495 1497 1493 1491 1490 1490 1489 1488 1488 1487 1487 1485 1485 1485 1487 1488 1490 1492 1493 1495 1497 1500 1503 1506 1509 1512 1514 1516 1518 1520 1522 1523 1525 1526 1527 1529 1530 1531 1532 1533 1534 1534 1535 1535 1536 1536 1537 1537 1537
1493 1490 1490 1489 1489 1489 1488 1486 1485 1484 1483 1483 1483 1483 1484 1485 1486 1488 1490 1492 1495 1497 1500 1503 1506 1509 1511 1513 1516 1518 1519 1521 1522 1524 1526 1527 1528 1529 1531 1532 1533 1533 1534 1535 1535 1536 1536 1536 1536
1490 1487 1486 1486 1486 1486 1485 1484 1483 1479 1479 1480 1480 1480 1481 1482 1483 1484 1486 1489 1491 1494 1496 1500 1502 1505 1508 1510 1512 1515 1516 1518 1520 1522 1523 1525 1526 1528 1529 1530 1532 1532 1533 1534 1534 1534 1535 1535 1535
1485 1485 1484 1483 1483 1483 1482 1480 1479 1474 1476 1476 1476 1477 1477 1478 1479 1481 1483 1485 1487 1490 1492 1495 1498 1501 1504 1506 1508 1511 1513 1516 1518 1519 1521 1522 1524 1526 1527 1528 1530 1531 1532 1532 1533 1533 1533 1534 1534
1484 1485 1482 1480 1479 1479 1481 1479 1473 1470 1472 1472 1472 1472 1473 1474 1475 1476 1478 1479 1482 1485 1488 1491 1494 1497 1499 1502 1505 1508 1510 1512 1514 1516 1518 1520 1521 1523 1525 1526 1527 1529 1530 1530 1531 1531 1532 1532 1532
1482 1486 1486 1477 1476 1476 1482 1478 1465 1466 1467 1466 1466 1467 1468 1468 1470 1471 1473 1475 1477 1480 1483 1486 1489 1492 1495 1498 1501 1504 1506 1509 1511 1513 1515 1517 1518 1520 1522 1523 1525 1526 1527 1528 1529 1529 1530 1530 1530
1485 1488 1484 1478 1472 1473 1477 1472 1461 1461 1462 1461 1460 1461 1461 1462 1463 1465 1468 1470 1472 1475 1478 1481 1484 1486 1490 1493 1497 1500 1502 1505 1507 1509 1511 1513 1515 1517 1519 1520 1522 1523 1524 1525 1526 1527 1527 1527 1528
1486 1484 1481 1478 1470 1471 1473 1467 1459 1457 1457 1455 1454 1455 1455 1455 1456 1459 1462 1464 1467 1469 1472 1475 1478 1481 1485 1489 1493 1496 1498 1500 1503 1505 1507 1509 1511 1513 1515 1517 1518 1520 1521 1522 1523 1524 1524 1525 1525
1477 1478 1478 1473 1467 1469 1468 1462 1455 1452 1452 1450 1448 1448 1448 1448 1450 1453 1455 1458 1460 1463 1466 1469 1472 1476 1480 1483 1486 1489 1491 1494 1497 1500 1502 1505 1507 1509 1511 1512 1514 1516 1517 1518 1519 1520 1521 1521 1522
1475 1477 1475 1470 1464 1465 1464 1458 1450 1447 1445 1443 1442 1441 1441 1442 1443 1445 1448 1451 1453 1456 1459 1463 1466 1469 1473 1476 1479 1483 1486 1489 1492 1495 1498 1500 1502 1504 1506 1508 1509 1511 1513 1514 1515 1516 1517 1517 1518
1472 1473 1472 1471 1465 1462 1463 1458 1449 1441 1438 1436 1434 1434 1434 1435 1436 1438 1440 1443 1446 1449 1452 1455 1459 1463 1466 1470 1475 1479 1482 1485 1487 1489 1491 1494 1497 1499 1501 1503 1505 1506 1508 1509 1510 1512 1512 1513 1514
1468 1465 1467 1467 1471 1472 1466 1467 1449 1440 1435 1430 1427 1427 1426 1427 1429 1431 1433 1435 1438 1442 1446 1449 1453 1456 1460 1465 1468 1470 1473 1475 1478 1482 1485 1489 1492 1494 1496 1498 1500 1501 1503 1504 1506 1507 1508 1509 1509
1462 1461 1463 1464 1468 1471 1467 1468 1449 1439 1434 1425 1421 1420 1420 1421 1422 1424 1426 1429 1432 1436 1439 1443 1446 1450 1454 1458 1461 1464 1467 1470 1474 1477 1480 1483 1486 1488 1490 1492 1494 1496 1497 1499 1501 1502 1503 1503 1504
1458 1461 1462 1465 1468 1471 1460 1465 1449 1437 1426 1420 1416 1414 1413 1415 1416 1418 1421 1423 1426 1430 1433 1436 1440 1443 1447 1451 1454 1457 1460 1464 1467 1470 1474 1477 1480 1482 1484 1486 1488 1490 1491 1493 1495 1496 1497 1498 1498
1459 1466 1473 1472 1473 1464 1452 1454 1440 1424 1417 1414 1411 1409 1408 1409 1411 1413 1415 1417 1420 1423 1427 1430 1434 1437 1441 1445 1448 1451 1454 1458 1461 1464 1467 1470 1473 1475 1477 1480 1482 1484 1485 1487 1489 1490 1491 1492 1492
1454 1459 1468 1470 1468 1460 1451 1446 1429 1414 1410 1407 1406 1405 1405 1406 1407 1408 1410 1412 1415 1418 1421 1424 1428 1431 1435 1438 1442 1445 1449 1452 1455 1458 1461 1463 1466 1469 1471 1474 1476 1478 1480 1482 1483 1484 1485 1486 1486
1451 1453 1453 1460 1460 1461 1450 1437 1423 1409 1407 1405 1404 1403 1402 1402 1404 1405 1406 1408 1411 1413 1416 1419 1422 1425 1429 1432 1436 1439 1443 1446 1448 1452 1455 1457 1460 1463 1465 1468 1470 1472 1473 1475 1477 1478 1479 1480 1481
1442 1446 1453 1458 1461 1460 1448 1438 1426 1411 1407 1404 1402 1400 1399 1400 1401 1402 1403 1405 1407 1409 1412 1415 1417 1420 1423 1427 1430 1433 1436 1439 1443 1446 1448 1451 1454 1456 1459 1461 1463 1465 1467 1469 1470 1471 1473 1474 1474
1442 1444 1445 1449 1450 1454 1450 1433 1408 1405 1402 1400 1398 1397 1397 1398 1398 1398 1399 1401 1403 1405 1407 1409 1412 1415 1418 1421 1424 1427 1430 1433 1436 1439 1441 1444 1447 1450 1452 1454 1457 1459 1460 1462 1464 1465 1466 1467 1468
1435 1436 1440 1447 1447 1445 1443 1426 1400 1399 1397 1396 1396 1395 1395 1395 1395 1396 1397 1398 1399 1400 1402 1404 1407 1409 1412 1415 1418 1421 1424 1427 1429 1432 1435 1438 1440 1443 1445 1448 1450 1452 1454 1456 1457 1458 1459 1460 1461